Overview Statistics Trail Chart Weather Telemetry Raw packets
 

This is the latest recevied weather packets stored in our database for station/object K5BOU. If no packets are shown the sender has not sent any weather packets the latest 10 day(s).

<< 26 27 28 29 30 31 32 >>
Time Temp. Humidity Pressure Rain* Wind** Luminosity Snow
1788487233 27.22° C 99% 1010.7 hPa 0 mm - 0 W/m² -
1788486928 27.22° C 99% 1010.8 hPa 0 mm - 0 W/m² -
1788486626 27.22° C 99% 1010.7 hPa 0 mm - 0 W/m² -
1788486320 27.22° C 99% 1010.6 hPa 0 mm - 0 W/m² -
1788486016 27.22° C 99% 1010.4 hPa 0 mm - 0 W/m² -
1788485713 27.22° C 99% 1010.4 hPa 0 mm - 0 W/m² -
1788485409 27.22° C 99% 1010.5 hPa 0 mm - 0 W/m² -
1788485109 27.22° C 99% 1010.5 hPa 0 mm - 0 W/m² -
1788484803 27.22° C 99% 1010.5 hPa 0 mm - 0 W/m² -
1788484497 27.22° C 99% 1010.4 hPa 0 mm - 0 W/m² -
1788484192 27.22° C 98% 1010.5 hPa 0 mm - 0 W/m² -
1788483889 27.22° C 98% 1010.5 hPa 0 mm - 0 W/m² -
1788483589 27.22° C 98% 1010.2 hPa 0 mm - 0 W/m² -
1788483285 27.22° C 97% 1010.3 hPa 0 mm - 0 W/m² -
1788482979 27.22° C 97% 1010.5 hPa 0 mm - 0 W/m² -
1788482676 27.22° C 97% 1010.3 hPa 0 mm - 0 W/m² -
1788482376 27.22° C 97% 1010.4 hPa 0 mm - 3 W/m² -
1788482072 27.22° C 97% 1010.5 hPa 0 mm - 6 W/m² -
1788481767 27.78° C 97% 1010.4 hPa 0 mm - 10 W/m² -
1788481463 27.78° C 97% 1010.5 hPa 0 mm - 16 W/m² -
1788481162 27.78° C 97% 1010.3 hPa 0 mm - 21 W/m² -
1788480858 27.78° C 97% 1010.3 hPa 0 mm - 26 W/m² -
1788480552 27.78° C 98% 1010.5 hPa 0 mm - 35 W/m² -
1788480252 27.78° C 98% 1010.3 hPa 0 mm - 42 W/m² -
1788479947 27.22° C 99% 1010.4 hPa 0 mm - 44 W/m² -

* Rain latest hour (hover to see other rain measurements)
** Current wind speed in m/s (hover to see current wind gust speed)